When you browse on this site, cookies collect data to enhance your experience and personalize the content and advertising you see.
Visit our Privacy Policy to learn more. By continuing to use the site, you agree to this use of cookies and data.

Meteo orario Puerto Ayacucho

Oggi, 15 Luglio, Mercoledi

Tempo Temperatura Precipitazioni Vento Pressione Umidità
00:00 +25°C° 1.3 mm 1 m/s 752 mm Hg 93%
01:00 +25°C° 0 mm 1 m/s 752 mm Hg 93%
02:00 +25°C° 1.5 mm 1 m/s 752 mm Hg 93%
03:00 +24°C° 1.5 mm 1 m/s 751 mm Hg 94%
04:00 +24°C° 1.5 mm 1 m/s 751 mm Hg 95%
05:00 +24°C° 2.5 mm 1 m/s 752 mm Hg 95%
06:00 +24°C° 2.5 mm 1 m/s 752 mm Hg 95%
07:00 +25°C° 2.5 mm 1 m/s 753 mm Hg 95%
08:00 +25°C° 1.3 mm 2 m/s 753 mm Hg 95%
09:00 +25°C° 1.3 mm 2 m/s 753 mm Hg 95%
10:00 +25°C° 1.3 mm 3 m/s 753 mm Hg 94%
11:00 +26°C° 0.1 mm 3 m/s 752 mm Hg 92%
12:00 +26°C° 0.1 mm 2 m/s 752 mm Hg 90%
13:00 +27°C° 0.1 mm 2 m/s 751 mm Hg 88%
14:00 +27°C° 0 mm 2 m/s 751 mm Hg 84%
15:00 +28°C° 0 mm 2 m/s 750 mm Hg 80%
16:00 +29°C° 0 mm 1 m/s 749 mm Hg 77%
17:00 +28°C° 0 mm 1 m/s 750 mm Hg 80%
18:00 +27°C° 0 mm 1 m/s 751 mm Hg 84%
19:00 +25°C° 0 mm 1 m/s 751 mm Hg 88%
20:00 +25°C° 0 mm 1 m/s 751 mm Hg 88%
21:00 +25°C° 0 mm 1 m/s 752 mm Hg 88%
22:00 +25°C° 0 mm 1 m/s 752 mm Hg 88%
23:00 +25°C° 0 mm 1 m/s 752 mm Hg 87%

Domani, 16 Luglio, Giovedi

Tempo Temperatura Precipitazioni Vento Pressione Umidità
00:00 +25°C° 0 mm 1 m/s 752 mm Hg 87%
01:00 +24°C° 0 mm 1 m/s 751 mm Hg 87%
02:00 +24°C° 0 mm 1 m/s 751 mm Hg 88%
03:00 +24°C° 0 mm 1 m/s 751 mm Hg 89%
04:00 +24°C° 0 mm 1 m/s 751 mm Hg 89%
05:00 +25°C° 0 mm 1 m/s 752 mm Hg 87%
06:00 +26°C° 0 mm 1 m/s 752 mm Hg 85%
07:00 +26°C° 0 mm 1 m/s 753 mm Hg 83%
08:00 +28°C° 0 mm 1 m/s 753 mm Hg 77%
09:00 +30°C° 0 mm 1 m/s 753 mm Hg 71%
10:00 +32°C° 0 mm 1 m/s 753 mm Hg 65%
11:00 +32°C° 0.3 mm 1 m/s 752 mm Hg 64%
12:00 +34°C° 0.3 mm 2 m/s 751 mm Hg 62%
13:00 +34°C° 0.3 mm 2 m/s 750 mm Hg 61%
14:00 +34°C° 1.5 mm 2 m/s 750 mm Hg 66%
15:00 +32°C° 1.5 mm 2 m/s 750 mm Hg 71%
16:00 +31°C° 1.5 mm 2 m/s 749 mm Hg 77%
17:00 +30°C° 0.3 mm 2 m/s 750 mm Hg 80%
18:00 +28°C° 0.3 mm 1 m/s 750 mm Hg 83%
19:00 +27°C° 0.3 mm 1 m/s 751 mm Hg 87%
20:00 +27°C° 0 mm 1 m/s 751 mm Hg 87%
21:00 +26°C° 0 mm 1 m/s 752 mm Hg 88%
22:00 +26°C° 0 mm 1 m/s 752 mm Hg 88%
23:00 +26°C° 0 mm 1 m/s 752 mm Hg 89%

Dopodomani, 17 Luglio, Venerdi

Tempo Temperatura Precipitazioni Vento Pressione Umidità
00:00 +25°C° 0 mm 1 m/s 751 mm Hg 90%
01:00 +25°C° 0 mm 1 m/s 751 mm Hg 91%
02:00 +25°C° 0.1 mm 1 m/s 751 mm Hg 92%
03:00 +25°C° 0.1 mm 1 m/s 751 mm Hg 92%
04:00 +25°C° 0.1 mm 1 m/s 751 mm Hg 92%
05:00 +25°C° 0.1 mm 1 m/s 752 mm Hg 91%
06:00 +26°C° 0.1 mm 1 m/s 752 mm Hg 89%
07:00 +26°C° 0.1 mm 1 m/s 753 mm Hg 88%
08:00 +28°C° 0 mm 1 m/s 753 mm Hg 81%
09:00 +30°C° 0 mm 1 m/s 753 mm Hg 74%
10:00 +32°C° 0 mm 1 m/s 753 mm Hg 67%
11:00 +31°C° 2.6 mm 1 m/s 752 mm Hg 70%
12:00 +31°C° 2.6 mm 1 m/s 751 mm Hg 73%
13:00 +31°C° 2.6 mm 1 m/s 750 mm Hg 76%
14:00 +31°C° 1.3 mm 1 m/s 750 mm Hg 75%
15:00 +29°C° 1.3 mm 0 m/s 750 mm Hg 74%
16:00 +29°C° 1.3 mm 0 m/s 750 mm Hg 73%
17:00 +28°C° 0.3 mm 0 m/s 750 mm Hg 77%
18:00 +29°C° 0.3 mm 1 m/s 750 mm Hg 81%
19:00 +27°C° 0.3 mm 1 m/s 751 mm Hg 85%
20:00 +27°C° 0.4 mm 1 m/s 751 mm Hg 86%
21:00 +27°C° 0.4 mm 1 m/s 752 mm Hg 88%
22:00 +26°C° 0.4 mm 1 m/s 752 mm Hg 89%
23:00 +26°C° 0.2 mm 1 m/s 752 mm Hg 90%

18 Luglio, Sabato

Tempo Temperatura Precipitazioni Vento Pressione Umidità
00:00 +26°C° 0.2 mm 1 m/s 751 mm Hg 91%
01:00 +25°C° 0.2 mm 1 m/s 751 mm Hg 92%
02:00 +25°C° 0.5 mm 1 m/s 751 mm Hg 92%
03:00 +25°C° 0.5 mm 1 m/s 751 mm Hg 93%
04:00 +25°C° 0.5 mm 1 m/s 751 mm Hg 94%
05:00 +25°C° 0.4 mm 1 m/s 752 mm Hg 93%
06:00 +26°C° 0.4 mm 1 m/s 752 mm Hg 92%
07:00 +26°C° 0.4 mm 1 m/s 752 mm Hg 91%
08:00 +28°C° 0.9 mm 1 m/s 752 mm Hg 86%
09:00 +29°C° 0.9 mm 1 m/s 752 mm Hg 82%
10:00 +30°C° 0.9 mm 1 m/s 752 mm Hg 78%
11:00 +31°C° 1.1 mm 1 m/s 751 mm Hg 74%
12:00 +32°C° 1.1 mm 1 m/s 751 mm Hg 70%
13:00 +32°C° 1.1 mm 1 m/s 750 mm Hg 66%
14:00 +32°C° 1 mm 1 m/s 750 mm Hg 69%
15:00 +31°C° 1 mm 1 m/s 749 mm Hg 72%
16:00 +29°C° 1 mm 0 m/s 749 mm Hg 74%
17:00 +28°C° 1.1 mm 0 m/s 749 mm Hg 79%
18:00 +27°C° 1.1 mm 0 m/s 750 mm Hg 83%
19:00 +25°C° 1.1 mm 0 m/s 750 mm Hg 87%
20:00 +25°C° 0.1 mm 0 m/s 751 mm Hg 88%
21:00 +27°C° 0.1 mm 1 m/s 751 mm Hg 89%
22:00 +26°C° 0.1 mm 1 m/s 752 mm Hg 90%
23:00 +26°C° 0.5 mm 1 m/s 751 mm Hg 91%

19 Luglio, Domenica

Tempo Temperatura Precipitazioni Vento Pressione Umidità
00:00 +26°C° 0.5 mm 1 m/s 751 mm Hg 92%
01:00 +25°C° 0.5 mm 1 m/s 751 mm Hg 93%
02:00 +25°C° 0.7 mm 1 m/s 751 mm Hg 93%
03:00 +25°C° 0.7 mm 1 m/s 751 mm Hg 94%
04:00 +25°C° 0.7 mm 1 m/s 751 mm Hg 95%
05:00 +25°C° 0.8 mm 1 m/s 751 mm Hg 94%
06:00 +25°C° 0.8 mm 1 m/s 751 mm Hg 94%
07:00 +25°C° 0.8 mm 1 m/s 752 mm Hg 93%
08:00 +26°C° 0.8 mm 1 m/s 752 mm Hg 93%
09:00 +26°C° 0.8 mm 1 m/s 752 mm Hg 92%
10:00 +27°C° 0.8 mm 2 m/s 752 mm Hg 91%
11:00 +28°C° 1.2 mm 1 m/s 752 mm Hg 86%
12:00 +29°C° 1.2 mm 1 m/s 751 mm Hg 81%
13:00 +31°C° 1.2 mm 1 m/s 750 mm Hg 76%
14:00 +31°C° 1 mm 1 m/s 750 mm Hg 75%
15:00 +30°C° 1 mm 1 m/s 749 mm Hg 75%
16:00 +30°C° 1 mm 2 m/s 749 mm Hg 74%
17:00 +29°C° 0.1 mm 1 m/s 749 mm Hg 78%
18:00 +28°C° 0.1 mm 1 m/s 750 mm Hg 82%
19:00 +27°C° 0.1 mm 1 m/s 750 mm Hg 86%
20:00 +27°C° 0.2 mm 1 m/s 751 mm Hg 87%
21:00 +27°C° 0.2 mm 1 m/s 751 mm Hg 87%
22:00 +26°C° 0.2 mm 1 m/s 752 mm Hg 88%
23:00 +26°C° 0.1 mm 1 m/s 751 mm Hg 89%

20 Luglio, Lunedi

Tempo Temperatura Precipitazioni Vento Pressione Umidità
00:00 +26°C° 0.1 mm 1 m/s 751 mm Hg 90%
01:00 +25°C° 0.1 mm 2 m/s 750 mm Hg 91%
02:00 +25°C° 0.2 mm 1 m/s 750 mm Hg 92%
03:00 +25°C° 0.2 mm 1 m/s 751 mm Hg 93%
04:00 +25°C° 0.2 mm 1 m/s 751 mm Hg 93%
05:00 +25°C° 0.8 mm 1 m/s 751 mm Hg 94%
06:00 +25°C° 0.8 mm 1 m/s 752 mm Hg 95%
07:00 +25°C° 0.8 mm 1 m/s 752 mm Hg 96%
08:00 +26°C° 0.8 mm 1 m/s 752 mm Hg 94%
09:00 +26°C° 0.8 mm 1 m/s 753 mm Hg 92%
10:00 +27°C° 0.8 mm 1 m/s 753 mm Hg 90%
11:00 +27°C° 1.5 mm 1 m/s 753 mm Hg 88%
12:00 +28°C° 1.5 mm 1 m/s 752 mm Hg 87%
13:00 +28°C° 1.5 mm 1 m/s 751 mm Hg 86%
14:00 +28°C° 0.4 mm 1 m/s 751 mm Hg 85%
15:00 +28°C° 0.4 mm 1 m/s 750 mm Hg 84%
16:00 +28°C° 0.4 mm 1 m/s 750 mm Hg 82%
17:00 +27°C° 0 mm 1 m/s 750 mm Hg 86%
18:00 +25°C° 0 mm 0 m/s 750 mm Hg 89%
19:00 +24°C° 0 mm 0 m/s 750 mm Hg 92%
20:00 +24°C° 0 mm 0 m/s 751 mm Hg 92%
21:00 +24°C° 0 mm 0 m/s 751 mm Hg 92%
22:00 +24°C° 0 mm 0 m/s 752 mm Hg 92%
23:00 +24°C° 0 mm 0 m/s 751 mm Hg 92%
Mostrare altro